EN

Hourly Weather Budziszewko

Today, 28 October, Wednesday

Time Temperature Precipitation Wind Pressure Humidity
00:00 +7°C° 0 mm 4 mps 751 mmHg 80%
01:00 +7°C° 0 mm 4 mps 751 mmHg 79%
02:00 +7°C° 0 mm 4 mps 751 mmHg 80%
03:00 +6°C° 0 mm 4 mps 750 mmHg 80%
04:00 +6°C° 0 mm 4 mps 750 mmHg 80%
05:00 +6°C° 0 mm 4 mps 750 mmHg 79%
06:00 +6°C° 0 mm 5 mps 750 mmHg 77%
07:00 +6°C° 0 mm 5 mps 750 mmHg 75%
08:00 +7°C° 0 mm 6 mps 750 mmHg 70%
09:00 +9°C° 0 mm 6 mps 750 mmHg 65%
10:00 +10°C° 0 mm 6 mps 750 mmHg 60%
11:00 +10°C° 0 mm 6 mps 750 mmHg 60%
12:00 +10°C° 0 mm 5 mps 750 mmHg 60%
13:00 +12°C° 0 mm 5 mps 750 mmHg 60%
14:00 +11°C° 0 mm 4 mps 750 mmHg 64%
15:00 +11°C° 0 mm 4 mps 750 mmHg 69%
16:00 +10°C° 0 mm 4 mps 750 mmHg 74%
17:00 +10°C° 0 mm 4 mps 750 mmHg 75%
18:00 +8°C° 0 mm 4 mps 750 mmHg 77%
19:00 +8°C° 0 mm 4 mps 750 mmHg 79%
20:00 +8°C° 0 mm 4 mps 751 mmHg 81%
21:00 +8°C° 0 mm 4 mps 751 mmHg 84%
22:00 +7°C° 0 mm 4 mps 751 mmHg 86%
23:00 +7°C° 0 mm 4 mps 751 mmHg 87%

Tomorrow, 29 October, Thursday

Time Temperature Precipitation Wind Pressure Humidity
00:00 +7°C° 0 mm 4 mps 751 mmHg 88%
01:00 +7°C° 0 mm 4 mps 751 mmHg 89%
02:00 +7°C° 0 mm 4 mps 750 mmHg 89%
03:00 +7°C° 0 mm 4 mps 750 mmHg 90%
04:00 +7°C° 0 mm 4 mps 750 mmHg 90%
05:00 +7°C° 0 mm 4 mps 750 mmHg 89%
06:00 +7°C° 0 mm 4 mps 750 mmHg 88%
07:00 +7°C° 0 mm 4 mps 750 mmHg 87%
08:00 +8°C° 0 mm 5 mps 750 mmHg 84%
09:00 +9°C° 0 mm 5 mps 750 mmHg 81%
10:00 +10°C° 0 mm 6 mps 749 mmHg 78%
11:00 +9°C° 0.5 mm 6 mps 749 mmHg 80%
12:00 +9°C° 0.5 mm 5 mps 749 mmHg 83%
13:00 +9°C° 0.5 mm 5 mps 749 mmHg 85%
14:00 +9°C° 0.2 mm 5 mps 750 mmHg 82%
15:00 +9°C° 0.2 mm 5 mps 750 mmHg 79%
16:00 +9°C° 0.2 mm 5 mps 750 mmHg 76%
17:00 +9°C° 0.1 mm 5 mps 751 mmHg 77%
18:00 +8°C° 0.1 mm 5 mps 752 mmHg 78%
19:00 +8°C° 0.1 mm 5 mps 752 mmHg 78%
20:00 +7°C° 0 mm 5 mps 753 mmHg 80%
21:00 +7°C° 0 mm 5 mps 753 mmHg 82%
22:00 +7°C° 0 mm 5 mps 753 mmHg 83%
23:00 +6°C° 0 mm 5 mps 754 mmHg 86%

Day after tomorrow, 30 October, Friday

Time Temperature Precipitation Wind Pressure Humidity
00:00 +6°C° 0 mm 5 mps 754 mmHg 88%
01:00 +6°C° 0 mm 5 mps 754 mmHg 90%
02:00 +5°C° 0 mm 4 mps 754 mmHg 91%
03:00 +5°C° 0 mm 4 mps 755 mmHg 92%
04:00 +5°C° 0 mm 4 mps 755 mmHg 92%
05:00 +5°C° 0 mm 4 mps 755 mmHg 92%
06:00 +5°C° 0 mm 3 mps 755 mmHg 92%
07:00 +4°C° 0 mm 3 mps 755 mmHg 91%
08:00 +5°C° 0.1 mm 3 mps 755 mmHg 89%
09:00 +7°C° 0.1 mm 3 mps 754 mmHg 87%
10:00 +6°C° 0.1 mm 4 mps 754 mmHg 85%
11:00 +6°C° 0.8 mm 4 mps 754 mmHg 88%
12:00 +6°C° 0.8 mm 4 mps 753 mmHg 91%
13:00 +7°C° 0.8 mm 4 mps 753 mmHg 93%
14:00 +7°C° 1.4 mm 4 mps 752 mmHg 94%
15:00 +8°C° 1.4 mm 4 mps 752 mmHg 96%
16:00 +9°C° 1.4 mm 3 mps 752 mmHg 97%
17:00 +10°C° 1 mm 4 mps 752 mmHg 96%
18:00 +10°C° 1 mm 4 mps 752 mmHg 96%
19:00 +10°C° 1 mm 5 mps 752 mmHg 96%
20:00 +11°C° 0.7 mm 4 mps 752 mmHg 96%
21:00 +10°C° 0.7 mm 4 mps 753 mmHg 96%
22:00 +10°C° 0.7 mm 3 mps 753 mmHg 96%
23:00 +9°C° 0.1 mm 3 mps 754 mmHg 95%

31 October, Saturday

Time Temperature Precipitation Wind Pressure Humidity
00:00 +9°C° 0.1 mm 3 mps 754 mmHg 95%
01:00 +8°C° 0.1 mm 2 mps 755 mmHg 94%
02:00 +8°C° 0.1 mm 2 mps 756 mmHg 94%
03:00 +8°C° 0.1 mm 2 mps 756 mmHg 93%
04:00 +8°C° 0.1 mm 2 mps 757 mmHg 93%
05:00 +7°C° 0 mm 2 mps 757 mmHg 92%
06:00 +7°C° 0 mm 2 mps 758 mmHg 92%
07:00 +7°C° 0 mm 2 mps 758 mmHg 91%
08:00 +8°C° 0 mm 2 mps 759 mmHg 87%
09:00 +8°C° 0 mm 2 mps 759 mmHg 83%
10:00 +9°C° 0 mm 2 mps 759 mmHg 80%
11:00 +10°C° 0 mm 3 mps 759 mmHg 76%
12:00 +11°C° 0 mm 3 mps 759 mmHg 72%
13:00 +11°C° 0 mm 3 mps 759 mmHg 68%
14:00 +11°C° 0 mm 3 mps 759 mmHg 70%
15:00 +12°C° 0 mm 2 mps 759 mmHg 72%
16:00 +10°C° 0 mm 2 mps 759 mmHg 74%
17:00 +10°C° 0 mm 2 mps 760 mmHg 75%
18:00 +9°C° 0 mm 3 mps 760 mmHg 76%
19:00 +9°C° 0 mm 3 mps 760 mmHg 78%
20:00 +8°C° 0 mm 3 mps 760 mmHg 77%
21:00 +8°C° 0 mm 3 mps 760 mmHg 76%
22:00 +7°C° 0 mm 4 mps 760 mmHg 75%
23:00 +7°C° 0 mm 4 mps 760 mmHg 76%

1 November, Sunday

Time Temperature Precipitation Wind Pressure Humidity
00:00 +6°C° 0 mm 4 mps 760 mmHg 77%
01:00 +6°C° 0 mm 4 mps 760 mmHg 78%
02:00 +6°C° 0 mm 4 mps 759 mmHg 79%
03:00 +5°C° 0 mm 4 mps 759 mmHg 80%
04:00 +5°C° 0 mm 4 mps 759 mmHg 81%
05:00 +5°C° 0 mm 4 mps 759 mmHg 81%
06:00 +5°C° 0 mm 4 mps 758 mmHg 81%
07:00 +5°C° 0 mm 5 mps 758 mmHg 81%
08:00 +6°C° 0 mm 5 mps 758 mmHg 76%
09:00 +7°C° 0 mm 5 mps 758 mmHg 71%
10:00 +8°C° 0 mm 6 mps 758 mmHg 67%
11:00 +9°C° 0 mm 6 mps 757 mmHg 64%
12:00 +10°C° 0 mm 6 mps 757 mmHg 61%
13:00 +11°C° 0 mm 6 mps 757 mmHg 58%
14:00 +10°C° 0 mm 5 mps 756 mmHg 61%
15:00 +10°C° 0 mm 5 mps 756 mmHg 64%
16:00 +9°C° 0 mm 5 mps 756 mmHg 67%
17:00 +9°C° 0 mm 5 mps 755 mmHg 70%
18:00 +8°C° 0 mm 5 mps 755 mmHg 73%
19:00 +8°C° 0 mm 5 mps 755 mmHg 75%
20:00 +8°C° 0 mm 5 mps 755 mmHg 77%
21:00 +7°C° 0 mm 4 mps 755 mmHg 79%
22:00 +7°C° 0 mm 4 mps 755 mmHg 80%
23:00 +7°C° 0 mm 4 mps 755 mmHg 82%

2 November, Monday

Time Temperature Precipitation Wind Pressure Humidity
00:00 +7°C° 0 mm 4 mps 755 mmHg 83%
01:00 +7°C° 0 mm 4 mps 755 mmHg 84%
02:00 +7°C° 0 mm 4 mps 755 mmHg 84%
03:00 +7°C° 0 mm 4 mps 754 mmHg 85%
04:00 +7°C° 0 mm 4 mps 754 mmHg 85%
05:00 +7°C° 0 mm 4 mps 754 mmHg 84%
06:00 +7°C° 0 mm 4 mps 754 mmHg 84%
07:00 +8°C° 0 mm 3 mps 754 mmHg 83%
08:00 +8°C° 0 mm 4 mps 754 mmHg 79%
09:00 +10°C° 0 mm 4 mps 754 mmHg 75%
10:00 +11°C° 0 mm 4 mps 754 mmHg 72%
11:00 +11°C° 0 mm 4 mps 754 mmHg 72%
12:00 +11°C° 0 mm 4 mps 754 mmHg 72%
13:00 +11°C° 0 mm 4 mps 755 mmHg 73%
14:00 +11°C° 0.1 mm 4 mps 754 mmHg 74%
15:00 +11°C° 0.1 mm 4 mps 754 mmHg 75%
16:00 +11°C° 0.1 mm 4 mps 754 mmHg 76%
17:00 +11°C° 0.1 mm 4 mps 754 mmHg 76%
18:00 +11°C° 0.1 mm 4 mps 754 mmHg 77%
19:00 +11°C° 0.1 mm 4 mps 755 mmHg 77%
20:00 +11°C° 0.2 mm 4 mps 755 mmHg 77%
21:00 +11°C° 0.2 mm 4 mps 754 mmHg 78%
22:00 +11°C° 0.2 mm 4 mps 754 mmHg 79%
23:00 +11°C° 0.7 mm 4 mps 754 mmHg 79%
Show more